Weather in Salto

Uruguay     31°23′19″S   57°57′15″W
temp.,
°C
wind,
m/s
gust,
m/s
humid.,
%
clouds,
%
prec.,
mm/h
press.,
hPa
HPBL,
m
9 august, tue
tue900:00+10sse3894100 0.8 1026407
03:00+9sse4892100 1.5 1027477
06:00+8sse51095100 3.6 1027463
09:00+8sse4995100 7.3 1029436
12:00+10sse4885100 0.4 1030599
15:00+14sse4766100 0.5 10281380
18:00+12sse377599 0.1 1028252
21:00+9s36835 0.1 1030114
10 august, wed
wed1000:00+7sse36861 0.0 1030104
03:00+6ese25910 0.0 1029108
06:00+5e25930 0.0 102897
09:00+7e25790 0.0 1028182
12:00+13ene345981 0.0 1028747
15:00+14ene34536 0.0 10261018
18:00+11ene2374100 0.0 102456
21:00+8ene247762 0.0 102566
11 august, thu
thu1100:00+7ene368613 0.0 1025115
03:00+6ne36930 0.0 1024124
06:00+6ne36940 0.0 1024110
09:00+9ne36850 0.0 1025214
12:00+15nne57660 0.0 1025804
15:00+16nne45580 0.0 10221017
18:00+13nne22782 0.0 102039
21:00+10ene37906 0.0 1020114
12 august, fri
fri1200:00+9ne3994100 0.0 1020183
03:00+9ne31095100 0.0 1019229
06:00+9ne31095100 0.0 1017251
09:00+11ne41188100 0.0 1018322
12:00+17nne5970100 0.0 1017588
15:00+19nne5666100 0.0 1015858
18:00+16nne378327 0.0 1014196
21:00+14ne379372 0.0 1016141
13 august, sat
sat1300:00+13nne36940 0.0 1016125
03:00+12ne23950 0.0 101654
06:00+11ene22950 0.0 101620
09:00+14ne24860 0.0 1017141
12:00+20ene34680 0.0 1017605
15:00+22ene34630 0.0 1015951
18:00+18e35830 0.0 1014100
21:00+15e39920 0.0 1014168